Home > Time Zones > World Clock > Weather > Sweden > Lund > Past weeks

Flag for Sweden Weather past 2 weeks in Lund, Sweden

Now
81 °F

Scattered clouds.


Feels Like: 82 °F
Forecast: 64 / 83 °F
Wind: 8 mph from Southwest

Location: Malmo / Sturup

Current Time: Jul 28, 2014 at 2:21:29 PM

Latest Report: Jul 28, 2014 at 1:50 PM


Visibility: N/A

Pressure: 29.92 "Hg

Humidity: 54%

Dew point: 63 °F

Location of LundLocation

Historic Weather in Lund — Graph

°F

Lund temperature yesterday

Maximum temperature yesterday: 81 °F (at 12:20 PM)
Minimum temperature yesterday: 61 °F (at 1:50 AM)
Average temperature yesterday: 71 °F

Past Weeks' High & Low Weather Summary

 TemperatureHumidityPressure
High84 °F (Jul 28, 11:50 AM)100% (Jul 14, 11:20 AM)30.24 "Hg (Jul 14, 11:20 AM)
Low50 °F (Jul 17, 2:20 AM)36% (Jul 23, 12:20 PM)29.62 "Hg (Jul 13, 1:20 PM)
Average68 °F72%30.04 "Hg
* Reported Jul 13 1:20 PM — Jul 28 1:20 PM, Lund, Weather by CustomWeather, © 2014

Note: Actual official high and low records may vary slightly from our data, if they occured in-between our weather recording intervals... More about our weather records

Advertising

Lund weather history for previous 24 hours

 ConditionsComfort  
Time TempWeatherWind HumidityBarometerVisibility
1:20 PM
Jul 28
82 °FScattered clouds.6 mph51%29.92 "HgN/A
12:50 PM82 °FPassing clouds.3 mph51%29.92 "HgN/A
12:20 PM82 °FPassing clouds.3 mph51%29.92 "HgN/A
11:50 AM84 °FPassing clouds.5 mph48%29.92 "HgN/A
11:20 AM82 °FPassing clouds.3 mph48%29.92 "HgN/A
10:50 AM81 °FSunny.3 mph58%29.95 "Hg10 mi
10:20 AM79 °FSunny.3 mph61%29.95 "Hg10 mi
9:50 AM77 °FPassing clouds.3 mph65%29.95 "HgN/A
9:20 AM75 °FPassing clouds.3 mph65%29.95 "HgN/A
8:50 AM75 °FSunny.3 mph69%29.95 "Hg10 mi
8:20 AM73 °FSunny.2 mph78%29.95 "Hg10 mi
7:50 AM70 °FSunny.2 mph88%29.95 "Hg10 mi
7:20 AM64 °FFog.2 mph100%29.95 "Hg5 mi
6:50 AM63 °FSunny.3 mph100%29.92 "Hg10 mi
6:20 AM61 °FLight fog.3 mph94%29.92 "Hg1 mi
5:50 AM59 °FLight fog.No wind100%29.92 "Hg0 mi
5:20 AM61 °FLight fog.No wind100%29.92 "Hg0 mi
4:20 AM59 °FLight fog.3 mph100%29.92 "Hg0 mi
3:50 AM59 °FClear.3 mph100%29.92 "Hg10 mi
3:20 AM61 °FClear.2 mph94%29.92 "Hg10 mi
2:50 AM63 °FClear.1 mph100%29.92 "Hg10 mi
2:20 AM61 °FLight fog.5 mph100%29.95 "Hg3 mi
1:20 AM63 °FFog.No wind100%29.95 "Hg6 mi
12:50 AM63 °FFog.No wind100%29.95 "Hg6 mi
12:20 AM64 °FFog.2 mph94%29.95 "Hg5 mi
11:50 PM
Jul 27
64 °FClear.2 mph94%29.95 "Hg10 mi
11:20 PM66 °FClear.2 mph94%29.95 "Hg10 mi
10:50 PM66 °FClear.3 mph94%29.95 "Hg10 mi
10:20 PM68 °FSunny.2 mph88%29.95 "Hg10 mi
9:50 PM68 °FSunny.6 mph88%29.95 "Hg10 mi
9:20 PM70 °FSunny.5 mph83%29.95 "Hg10 mi
8:50 PM73 °FSunny.3 mph69%29.95 "Hg10 mi
8:20 PM75 °FSunny.5 mph69%29.95 "Hg10 mi
7:50 PM77 °FSunny.5 mph61%29.92 "Hg10 mi
7:20 PM77 °FSunny.7 mph57%29.92 "Hg10 mi
6:50 PM79 °FSunny.6 mph58%29.92 "Hg10 mi
6:20 PM77 °FSunny.9 mph61%29.92 "Hg10 mi
5:50 PM79 °FSunny.9 mph58%29.92 "Hg10 mi
5:20 PM79 °FSunny.9 mph58%29.92 "Hg10 mi
4:20 PM79 °FSunny.13 mph58%29.92 "Hg10 mi
3:50 PM79 °FSunny.13 mph58%29.92 "Hg10 mi
3:20 PM81 °FSunny.13 mph54%29.92 "Hg10 mi
2:50 PM79 °FSunny.12 mph54%29.95 "Hg10 mi
2:20 PM81 °FSunny.13 mph54%29.95 "Hg10 mi
Weather by CustomWeather, © 2014

See weather overviewHow to use our weather pages